| time (UTC) | temp F | wind direction | speed MPH | gust MPH | rain 1hr in | rain 24hr in | rain mn in | humidity % | barometer mb |
| 20260505121518 | 50 | 0.0 | 0.0 | 0.00 | 0.00 | 0.00 | 87 | 1023.5 | |
| 20260505120518 | 51 | 0.0 | 0.0 | 0.00 | 0.00 | 0.00 | 87 | 1023.5 | |
| 20260505115518 | 51 | 0.0 | 0.0 | 0.00 | 0.00 | 0.00 | 86 | 1023.5 | |
| 20260505114518 | 51 | 0.0 | 0.0 | 0.00 | 0.00 | 0.00 | 86 | 1023.5 | |
| 20260505113518 | 51 | 0.0 | 0.0 | 0.00 | 0.00 | 0.00 | 86 | 1023.4 | |
| 20260505112518 | 51 | 0.0 | 0.0 | 0.00 | 0.00 | 0.00 | 86 | 1023.4 | |
| 20260505111518 | 52 | 0.0 | 0.0 | 0.00 | 0.00 | 0.00 | 85 | 1023.3 | |
| 20260505110518 | 52 | 0.0 | 0.0 | 0.00 | 0.00 | 0.00 | 85 | 1023.3 | |
| 20260505101517 | 53 | 0.0 | 2.0 | 0.00 | 0.00 | 0.00 | 83 | 1023.1 | |
| 20260505100517 | 53 | 0.0 | 2.0 | 0.00 | 0.00 | 0.00 | 83 | 1023.0 | |
| 20260505095517 | 54 | 0.0 | 2.0 | 0.00 | 0.00 | 0.00 | 83 | 1022.9 | |
| 20260505094517 | 54 | 0.0 | 2.0 | 0.00 | 0.00 | 0.00 | 82 | 1023.0 | |
| 20260505093517 | 54 | 0.0 | 1.0 | 0.00 | 0.00 | 0.00 | 81 | 1022.9 | |
| 20260505092517 | 55 | 203 | 1.0 | 2.0 | 0.00 | 0.00 | 0.00 | 80 | 1023.0 |
| 20260505091517 | 55 | 203 | 1.0 | 1.0 | 0.00 | 0.00 | 0.00 | 78 | 1022.9 |
| 20260505090517 | 56 | 0.0 | 2.0 | 0.00 | 0.00 | 0.00 | 77 | 1022.8 | |
| 20260505085517 | 57 | 203 | 1.0 | 2.0 | 0.00 | 0.00 | 0.00 | 76 | 1022.7 |
| 20260505084517 | 58 | 203 | 1.0 | 2.0 | 0.00 | 0.00 | 0.00 | 75 | 1022.6 |
| 20260505083517 | 58 | 203 | 2.0 | 3.0 | 0.00 | 0.00 | 0.00 | 72 | 1022.6 |
| 20260505082517 | 59 | 203 | 3.0 | 3.0 | 0.00 | 0.00 | 0.00 | 71 | 1022.4 |
| 20260505081517 | 59 | 203 | 2.0 | 2.0 | 0.00 | 0.00 | 0.00 | 71 | 1022.3 |
| 20260505080517 | 59 | 0.0 | 0.0 | 0.00 | 0.00 | 0.00 | 71 | 1022.2 | |
| 20260505075517 | 60 | 0.0 | 1.0 | 0.00 | 0.00 | 0.00 | 70 | 1022.1 | |
| 20260505074517 | 61 | 0.0 | 2.0 | 0.00 | 0.00 | 0.00 | 69 | 1022.0 | |
| 20260505073517 | 61 | 0.0 | 2.0 | 0.00 | 0.00 | 0.00 | 67 | 1021.9 | |
| 20260505072517 | 62 | 0.0 | 0.0 | 0.00 | 0.00 | 0.00 | 65 | 1021.9 | |
| 20260505071517 | 62 | 0.0 | 0.0 | 0.00 | 0.00 | 0.00 | 64 | 1021.8 | |
| 20260505070517 | 62 | 203 | 1.0 | 3.0 | 0.00 | 0.00 | 0.00 | 63 | 1021.7 |
| 20260505065517 | 63 | 0 | 1.0 | 5.0 | 0.00 | 0.00 | 0.00 | 62 | 1021.5 |
| 20260505064517 | 63 | 0 | 1.0 | 3.0 | 0.00 | 0.00 | 0.00 | 61 | 1021.5 |
| 20260505063517 | 63 | 0 | 3.0 | 9.0 | 0.00 | 0.00 | 0.00 | 60 | 1021.5 |
| 20260505062517 | 63 | 248 | 1.0 | 3.0 | 0.00 | 0.00 | 0.00 | 60 | 1021.5 |
| 20260505061517 | 63 | 270 | 1.0 | 2.0 | 0.00 | 0.00 | 0.00 | 59 | 1021.4 |
| 20260505060517 | 63 | 0 | 1.0 | 2.0 | 0.00 | 0.00 | 0.00 | 61 | 1021.4 |
| 20260505055517 | 64 | 0 | 1.0 | 2.0 | 0.00 | 0.00 | 0.00 | 59 | 1021.3 |
| 20260505054517 | 65 | 0 | 1.0 | 2.0 | 0.00 | 0.00 | 0.00 | 57 | 1021.3 |
| 20260505053517 | 64 | 0 | 1.0 | 4.0 | 0.00 | 0.00 | 0.00 | 58 | 1021.2 |
| 20260505052517 | 64 | 0 | 1.0 | 3.0 | 0.00 | 0.00 | 0.00 | 57 | 1021.2 |
| 20260505051517 | 64 | 0.0 | 2.0 | 0.00 | 0.00 | 0.00 | 60 | 1021.0 | |
| 20260505050517 | 65 | 0 | 1.0 | 2.0 | 0.00 | 0.00 | 0.00 | 57 | 1020.9 |
| 20260505041517 | 65 | 0 | 4.0 | 9.0 | 0.00 | 0.00 | 0.00 | 56 | 1020.9 |
| 20260505040517 | 66 | 0 | 2.0 | 6.0 | 0.00 | 0.00 | 0.00 | 56 | 1020.9 |
| 20260505035516 | 66 | 0 | 1.0 | 7.0 | 0.00 | 0.00 | 0.00 | 55 | 1020.9 |
| 20260505034516 | 65 | 0 | 1.0 | 3.0 | 0.00 | 0.00 | 0.00 | 60 | 1020.8 |
| 20260505033516 | 65 | 0 | 3.0 | 8.0 | 0.00 | 0.00 | 0.00 | 58 | 1020.9 |
| 20260505032517 | 64 | 0 | 1.0 | 3.0 | 0.00 | 0.00 | 0.00 | 60 | 1021.0 |
| 20260505031516 | 63 | 0 | 2.0 | 6.0 | 0.00 | 0.00 | 0.00 | 62 | 1021.0 |
| 20260505030518 | 62 | 270 | 2.0 | 4.0 | 0.00 | 0.00 | 0.00 | 64 | 1021.1 |
| 20260505025518 | 62 | 270 | 2.0 | 7.0 | 0.00 | 0.00 | 0.00 | 63 | 1021.2 |
| 20260505024518 | 63 | 0 | 2.0 | 3.0 | 0.00 | 0.00 | 0.00 | 62 | 1021.4 |
| 20260505023517 | 64 | 0 | 3.0 | 6.0 | 0.00 | 0.00 | 0.00 | 63 | 1021.4 |
| 20260505022518 | 63 | 270 | 2.0 | 5.0 | 0.00 | 0.00 | 0.00 | 67 | 1021.4 |
| 20260505021518 | 63 | 0 | 1.0 | 3.0 | 0.00 | 0.00 | 0.00 | 67 | 1021.6 |
| 20260505020518 | 63 | 248 | 1.0 | 4.0 | 0.00 | 0.00 | 0.00 | 68 | 1021.7 |
| 20260505015518 | 62 | 180 | 1.0 | 4.0 | 0.00 | 0.00 | 0.00 | 65 | 1021.9 |
| 20260505014518 | 62 | 0 | 1.0 | 5.0 | 0.00 | 0.00 | 0.00 | 67 | 1022.0 |
| 20260505013518 | 62 | 0 | 3.0 | 8.0 | 0.00 | 0.00 | 0.00 | 66 | 1021.9 |
| 20260505012518 | 62 | 0 | 2.0 | 10.0 | 0.00 | 0.00 | 0.00 | 67 | 1021.9 |
| 20260505011518 | 62 | 248 | 2.0 | 8.0 | 0.00 | 0.00 | 0.00 | 69 | 1022.0 |
| 20260505010518 | 62 | 0 | 2.0 | 4.0 | 0.00 | 0.00 | 0.00 | 69 | 1022.1 |
| 20260505005518 | 61 | 0 | 3.0 | 6.0 | 0.00 | 0.00 | 0.00 | 71 | 1022.1 |
| 20260505004518 | 61 | 0 | 2.0 | 4.0 | 0.00 | 0.00 | 0.00 | 74 | 1022.0 |
| 20260505003518 | 60 | 0 | 2.0 | 9.0 | 0.00 | 0.00 | 0.00 | 74 | 1022.0 |
| 20260505002518 | 60 | 0 | 2.0 | 6.0 | 0.00 | 0.00 | 0.00 | 75 | 1022.1 |
| 20260505001518 | 59 | 248 | 2.0 | 3.0 | 0.00 | 0.00 | 0.00 | 78 | 1022.1 |
| 20260505000518 | 59 | 270 | 1.0 | 4.0 | 0.00 | 0.00 | 0.00 | 80 | 1022.1 |
| 20260504235518 | 58 | 0 | 1.0 | 3.0 | 0.00 | 0.00 | 0.00 | 80 | 1022.1 |
| 20260504234518 | 57 | 0 | 2.0 | 8.0 | 0.00 | 0.00 | 0.00 | 82 | 1021.9 |
| 20260504233518 | 56 | 0 | 2.0 | 5.0 | 0.00 | 0.00 | 0.00 | 84 | 1022.0 |
| 20260504232518 | 56 | 0 | 2.0 | 5.0 | 0.00 | 0.00 | 0.00 | 85 | 1021.9 |
| 20260504231518 | 55 | 0 | 1.0 | 3.0 | 0.00 | 0.00 | 0.00 | 88 | 1021.8 |
| 20260504230518 | 54 | 270 | 2.0 | 6.0 | 0.00 | 0.00 | 0.00 | 91 | 1021.7 |
| 20260504225518 | 53 | 248 | 3.0 | 8.0 | 0.00 | 0.00 | 0.00 | 93 | 1021.8 |
| 20260504224518 | 52 | 270 | 2.0 | 7.0 | 0.00 | 0.00 | 0.00 | 94 | 1021.7 |
| 20260504223518 | 51 | 270 | 1.0 | 3.0 | 0.00 | 0.01 | 0.00 | 94 | 1021.6 |
| 20260504222518 | 51 | 0 | 1.0 | 3.0 | 0.00 | 0.01 | 0.00 | 94 | 1021.4 |
| 20260504221518 | 50 | 270 | 1.0 | 3.0 | 0.00 | 0.01 | 0.00 | 94 | 1021.2 |
| 20260504220518 | 49 | 0.0 | 2.0 | 0.00 | 0.01 | 0.00 | 93 | 1021.1 | |
| 20260504215518 | 48 | 293 | 1.0 | 2.0 | 0.00 | 0.01 | 0.00 | 93 | 1021.0 |
| 20260504214518 | 48 | 0.0 | 2.0 | 0.00 | 0.01 | 0.00 | 92 | 1021.0 | |
| 20260504213518 | 47 | 0.0 | 2.0 | 0.00 | 0.01 | 0.00 | 92 | 1020.9 | |
| 20260504212518 | 47 | 0.0 | 2.0 | 0.00 | 0.01 | 0.00 | 91 | 1020.7 | |
| 20260504211517 | 47 | 0.0 | 2.0 | 0.00 | 0.01 | 0.00 | 91 | 1020.5 | |
| 20260504210518 | 47 | 0.0 | 2.0 | 0.00 | 0.01 | 0.00 | 91 | 1020.5 | |
| 20260504205517 | 47 | 0.0 | 2.0 | 0.00 | 0.01 | 0.00 | 91 | 1020.3 | |
| 20260504204518 | 47 | 0.0 | 2.0 | 0.00 | 0.01 | 0.00 | 91 | 1020.2 | |
| 20260504203518 | 48 | 0.0 | 2.0 | 0.00 | 0.01 | 0.00 | 91 | 1020.2 | |
| 20260504202517 | 48 | 0.0 | 2.0 | 0.00 | 0.01 | 0.00 | 91 | 1020.0 | |
| 20260504201517 | 48 | 0.0 | 2.0 | 0.00 | 0.01 | 0.00 | 91 | 1019.9 | |
| 20260504200517 | 48 | 0.0 | 2.0 | 0.00 | 0.01 | 0.00 | 91 | 1019.8 | |
| 20260504195517 | 48 | 0.0 | 2.0 | 0.00 | 0.01 | 0.00 | 91 | 1019.6 | |
| 20260504194517 | 48 | 0.0 | 0.0 | 0.00 | 0.01 | 0.00 | 91 | 1019.6 | |
| 20260504193517 | 48 | 0.0 | 2.0 | 0.00 | 0.01 | 0.00 | 90 | 1019.5 | |
| 20260504192518 | 48 | 0.0 | 2.0 | 0.00 | 0.01 | 0.00 | 90 | 1019.5 | |
| 20260504191517 | 48 | 0.0 | 2.0 | 0.00 | 0.01 | 0.00 | 90 | 1019.3 | |
| 20260504190517 | 48 | 0.0 | 2.0 | 0.00 | 0.01 | 0.00 | 90 | 1019.1 | |
| 20260504185517 | 48 | 0.0 | 2.0 | 0.00 | 0.01 | 0.00 | 89 | 1019.1 | |
| 20260504184517 | 49 | 0.0 | 2.0 | 0.00 | 0.01 | 0.00 | 89 | 1019.1 | |
| 20260504183517 | 49 | 0.0 | 1.0 | 0.00 | 0.01 | 0.00 | 89 | 1019.0 | |
| 20260504182517 | 49 | 0.0 | 2.0 | 0.00 | 0.01 | 0.00 | 89 | 1018.9 | |
| 20260504181517 | 49 | 0.0 | 2.0 | 0.00 | 0.01 | 0.00 | 89 | 1018.9 | |
| 20260504180517 | 49 | 0.0 | 1.0 | 0.00 | 0.01 | 0.00 | 89 | 1018.8 | |
| 20260504175517 | 49 | 0 | 1.0 | 1.0 | 0.00 | 0.01 | 0.00 | 89 | 1018.7 |
| 20260504174517 | 49 | 0 | 1.0 | 1.0 | 0.00 | 0.01 | 0.00 | 89 | 1018.6 |
| 20260504173517 | 50 | 0 | 1.0 | 3.0 | 0.00 | 0.01 | 0.00 | 88 | 1018.6 |
| 20260504172517 | 50 | 0 | 1.0 | 2.0 | 0.00 | 0.01 | 0.00 | 88 | 1018.7 |
| 20260504171517 | 50 | 0 | 1.0 | 2.0 | 0.00 | 0.01 | 0.00 | 88 | 1018.6 |
| 20260504170517 | 50 | 0 | 1.0 | 2.0 | 0.00 | 0.01 | 0.00 | 87 | 1018.6 |
| 20260504150517 | 52 | 0.0 | 2.0 | 0.00 | 0.02 | 0.00 | 84 | 1018.4 | |
| 20260504140517 | 53 | 0.0 | 1.0 | 0.00 | 0.07 | 0.00 | 81 | 1018.4 | |
| 20260504130518 | 55 | 0 | 1.0 | 1.0 | 0.00 | 0.12 | 0.07 | 77 | 1018.4 |